User: anonymous   Login
Location: Fishcreek Rd Observing Site
(41.1865°N, 81.4271°W)
Time: 13:30:43
(UTC-05:00)
Language:

Iridium 75 - Orbit

View from above orbital plane
View from above orbital plane
View from above satellite
View from above satellite

Ground track
Ground track

The orbit data is extracted from the following two-line orbital elements,

1 25346U 98032E   14356.25582640  .00000776  00000-0  27002-3 0  1180
2 25346 086.3970 243.5734 0002072 099.6592 015.6138 14.34217189869539
Epoch (UTC): 22 December 2014 06:08:23
Eccentricity: 0.0002072
inclination: 86.3970°
perigee height: 776 km
apogee height: 779 km
right ascension of ascending node: 243.5734°
argument of perigee: 99.6592°
revolutions per day: 14.34217189
mean anomaly at epoch: 15.6138°
orbit number at epoch: 86953

The dashed part of the orbit path shows where the satellite is in the earth's shadow,  

DLR